Tracking 28790 objects as of 19-Apr-2024
HD Live streaming from Space Station
objects crossing your sky now

NOAA 16 DEB

Track NOAA 16 DEB now!
10-day predictions


NORAD ID: 41370
Int'l Code: 2000-055JP
Perigee: 679.5 km
Apogee: 779.0 km
Inclination: 98.9 °
Period: 99.2 minutes
Semi major axis: 7100 km
RCS: Unknown
Launch date: September 21, 2000
Source: United States (US)
Launch site: AIR FORCE WESTERN TEST RANGE (AFWTR)

Note: This is SATELLITE DEBRIS
Your satellite tracking list
Your tracking list is empty




NASA's NSSDC Master Catalog

Two Line Element Set (TLE):
1 41370U 00055JP  24106.32255020  .00019781  00000-0  48358-2 0  9993
2 41370  98.9390 321.0661 0070012 121.9009 238.9020 14.51085423438761
Source of the keplerian elements: AFSPC